RADUGA 32 [-]

Last updated on June 24, 2019, 3:40 a.m. UTC

1 23448U 94087A   19174.06448366 -.00000096  00000-0  00000+0 0  9993
2 23448  14.7470  11.7022 0004655 231.8858 123.4515  1.00283527107360
UTC
Height (km)
Latitude
Longitude
Inclination
Orbital Period
UTC large
Height (km)
Speed (km/s)
/
Latitude / Longitude
Inclination (degrees)
Orbital Period (minutes)
Azimuth
Elevation
Range (km)
Doppler Factor
iOS Compass Heading
iOS Angle

Next 30 passes for location: Hong Kong

Rise time Rise Azimuth (degrees) Set time Set Azimuth (degrees) Duration Max altitude (degrees)

No matching passes for this satellites